Temperature
8 8 7 7 7 7 7 7 7 6 6 6 6 6 6 6 6 6 6 6 6 6 6 7 7 8 8 9 9 9 9 9 9 10 11 12 13 13 13 13 13 14 14
8 8 7 7 7 7 7 7 6 6 6 5 5 5 5 5 5 5 5 5 5 5 5 5 5 6 6 7 8 8 9 9 9 9 10 11 12 12 12 12 12 13 13
8 8 8 7 7 7 7 7 6 6 5 5 5 5 4 4 4 4 4 4 4 4 4 4 4 4 5 5 6 6 7 8 8 9 10 10 11 11 11 12 12 12 13
8 8 8 8 7 7 7 7 6 6 5 5 4 4 4 4 4 3 3 3 3 3 3 3 3 3 3 4 4 4 5 6 7 8 9 9 10 10 10 10 10 11 12
8 8 8 8 8 7 7 7 6 6 5 5 4 4 4 3 3 3 3 3 2 2 2 2 2 2 2 3 3 3 3 3 4 7 8 8 8 8 8 9 8 9 10
8 8 8 8 8 8 7 7 6 6 5 4 4 3 3 3 3 3 2 2 2 2 2 1 1 1 1 1 2 2 2 2 3 5 6 6 7 7 7 6 6 6 7
8 8 8 8 8 7 7 7 6 5 4 4 3 3 3 3 2 2 2 2 1 1 1 1 1 1 1 1 1 1 1 1 3 4 4 5 5 5 5 4 4 4 5
8 8 8 8 7 7 7 7 6 5 5 4 4 3 4 3 3 2 2 2 1 1 1 1 1 1 1 1 0 0 -0 1 2 3 3 3 4 4 3 3 3 3 4
8 8 8 7 7 7 7 6 6 5 5 5 4 4 4 4 4 3 3 2 2 2 1 1 1 1 1 1 1 -0 -0 1 1 2 2 2 2 1 1 2 2 2 2
7 7 7 7 7 7 6 6 6 5 5 5 4 4 4 4 4 3 3 3 2 2 2 1 1 1 1 1 1 -0 0 1 1 1 1 0 -0 -1 -1 -0 0 1 1
7 7 7 6 6 6 6 6 6 5 5 5 4 4 4 3 3 3 3 3 2 2 1 1 0 0 0 0 -0 -0 -0 -0 -1 -1 -1 -1 -3 -3 -3 -2 -2 -1 0
7 7 7 6 6 6 6 6 5 5 5 4 4 4 3 3 3 3 2 2 1 1 1 0 -0 -1 -1 -1 -1 -1 -2 -2 -2 -2 -2 -3 -4 -5 -4 -4 -3 -2 -2
7 7 6 6 6 6 6 5 5 5 4 4 4 3 3 3 2 2 1 1 0 -0 -1 -1 -2 -2 -3 -3 -3 -3 -3 -3 -3 -3 -3 -4 -5 -6 -6 -5 -5 -4 -3
7 6 6 6 6 6 5 5 5 5 4 4 3 3 2 2 2 1 0 -0 -1 -2 -3 -3 -4 -4 -4 -5 -5 -5 -5 -5 -5 -5 -5 -5 -5 -6 -6 -6 -6 -5 -4
7 6 6 6 6 6 5 5 5 4 4 3 3 2 2 1 1 -0 -1 -2 -3 -3 -4 -5 -5 -5 -5 -6 -6 -6 -6 -6 -6 -6 -6 -6 -6 -7 -7 -7 -7 -6 -5
7 7 6 6 6 6 5 5 4 4 3 3 2 2 1 0 -0 -1 -2 -2 -3 -4 -5 -5 -6 -6 -6 -6 -7 -7 -7 -6 -6 -7 -7 -7 -7 -7 -8 -8 -7 -7 -6
8 7 7 6 6 6 5 5 4 4 3 3 2 1 0 -0 -1 -2 -2 -3 -4 -4 -5 -5 -6 -6 -7 -7 -7 -7 -7 -7 -7 -7 -7 -8 -8 -8 -8 -8 -8 -8 -7
8 7 7 7 6 6 5 4 4 4 3 2 1 1 -0 -1 -1 -2 -3 -3 -4 -4 -5 -6 -6 -7 -7 -7 -8 -8 -8 -8 -8 -8 -8 -8 -8 -8 -9 -9 -9 -9 -8
8 7 7 7 6 5 5 4 4 3 3 2 1 1 -0 -1 -2 -2 -3 -3 -4 -5 -5 -6 -7 -8 -8 -8 -9 -9 -9 -8 -8 -8 -8 -8 -9 -9 -9 -9 -10 -9 -9
8 7 7 7 6 5 5 4 4 3 2 2 1 0 -0 -1 -2 -2 -3 -3 -4 -5 -6 -7 -7 -8 -8 -9 -9 -9 -9 -9 -8 -9 -9 -9 -9 -9 -9 -10 -10 -10 -10
8 8 7 7 6 5 5 4 4 3 2 1 1 0 -0 -1 -2 -3 -3 -4 -5 -5 -6 -7 -8 -9 -9 -9 -10 -10 -10 -9 -9 -9 -10 -10 -9 -9 -10 -10 -10 -10 -10
9 9 8 7 6 6 5 4 4 3 2 2 1 0 -0 -1 -2 -3 -3 -4 -5 -6 -7 -8 -9 -9 -9 -10 -11 -11 -11 -11 -10 -10 -10 -10 -10 -10 -10 -10 -10 -10 -10
10 10 9 8 7 6 5 4 3 3 2 2 1 0 -1 -1 -2 -3 -4 -4 -5 -6 -7 -8 -9 -9 -10 -10 -11 -11 -12 -11 -11 -11 -10 -10 -10 -10 -10 -10 -10 -10 -10
12 11 10 8 7 6 5 4 3 3 2 2 1 0 -1 -1 -2 -3 -4 -5 -6 -7 -8 -8 -9 -10 -10 -11 -11 -11 -11 -12 -12 -12 -11 -11 -11 -11 -11 -11 -10 -10 -10
13 11 10 9 7 6 5 4 3 3 2 1 1 0 -1 -1 -2 -3 -4 -5 -6 -7 -8 -9 -9 -10 -10 -11 -11 -11 -11 -11 -12 -12 -12 -12 -11 -11 -11 -11 -10 -10 -10
13 12 10 9 7 6 5 4 3 3 2 1 1 -0 -1 -1 -2 -3 -4 -5 -6 -7 -8 -9 -9 -10 -10 -11 -11 -11 -11 -12 -12 -12 -13 -13 -12 -12 -11 -11 -11 -10 -10
Wind_Speed
1 4 5 6 8 9 10 12 13 14 15 16 17 18 18 19 20 20 21 22 23 24 25 25 26 27 28 29 29 29 28 28 28 28 28 28 29 28 27 27 27 22 27
8 7 6 7 8 9 10 11 12 14 14 15 16 17 17 18 18 19 20 21 22 23 24 24 25 26 27 28 28 29 29 28 28 28 27 27 28 28 27 27 26 23 26
12 8 4 7 8 9 10 11 12 13 13 14 15 16 17 17 18 18 19 20 21 22 23 23 24 25 26 26 27 28 29 29 29 28 27 24 25 27 27 27 26 25 25
13 9 4 8 8 8 9 10 11 12 13 14 15 16 16 17 17 18 19 20 21 21 22 23 23 24 25 26 26 27 28 29 29 29 24 24 24 26 27 27 26 25 25
13 9 5 8 8 8 9 9 10 11 12 13 14 15 16 16 17 18 19 20 20 21 22 22 23 24 25 25 26 27 27 28 27 27 26 25 24 26 28 27 26 25 25
13 9 6 8 7 8 8 8 9 10 11 12 13 15 15 16 17 17 18 19 20 21 21 22 23 23 24 25 26 27 27 28 25 25 26 26 25 28 29 28 27 26 25
13 10 7 8 7 6 6 7 7 8 10 11 12 14 15 16 16 17 18 19 20 21 21 22 23 24 24 24 25 26 26 27 25 25 25 24 27 30 30 29 28 27 26
15 11 6 7 6 5 5 5 6 7 9 10 12 13 15 16 16 17 18 19 20 21 22 22 23 24 24 24 25 25 26 25 24 24 24 24 27 30 31 30 30 28 27
15 12 9 8 6 4 3 3 4 6 8 9 11 12 14 16 16 17 18 20 21 21 22 22 23 23 24 24 25 25 25 25 24 21 22 22 26 30 31 32 31 31 29
13 13 11 9 6 4 3 3 4 5 6 8 9 11 12 14 15 16 19 20 21 21 21 22 23 23 23 23 24 25 24 23 21 20 20 22 29 31 31 32 32 32 31
8 11 13 10 7 4 3 2 3 3 5 6 7 8 9 12 14 15 18 19 20 20 20 21 22 23 23 22 24 24 22 20 20 19 19 25 30 30 31 32 33 33 33
9 8 12 12 10 6 3 2 1 1 2 4 4 5 7 10 13 14 17 18 19 19 19 20 22 21 21 20 21 23 19 21 20 20 21 29 30 31 32 33 33 34 34
11 9 11 14 12 9 5 3 2 2 1 2 3 3 5 8 11 13 15 16 18 17 17 18 19 19 19 19 19 20 20 21 20 21 23 29 31 33 33 33 34 34 35
10 10 11 16 14 11 8 5 4 4 3 1 0 1 3 5 7 9 10 13 14 14 14 15 15 17 18 18 17 17 20 21 21 22 23 30 33 34 34 34 35 35 35
13 12 9 16 15 13 9 7 6 5 5 3 2 1 1 2 3 5 6 9 10 11 11 12 13 14 15 15 15 17 18 21 22 22 23 30 33 34 34 35 35 35 36
15 14 10 14 16 14 11 9 7 7 6 5 5 4 4 2 1 3 5 7 9 11 11 12 13 13 12 12 13 16 19 20 21 23 24 27 31 33 34 35 35 36 36
15 14 13 14 16 14 12 10 8 7 7 7 7 7 6 5 5 5 5 7 10 11 11 12 13 10 10 12 11 15 17 18 20 22 24 24 25 29 32 34 35 36 37
14 15 14 14 14 14 13 11 8 7 7 7 8 8 9 8 7 6 6 8 10 10 10 9 7 4 6 6 7 9 14 16 19 22 23 23 24 24 28 33 35 36 37
17 17 15 11 12 13 13 11 8 7 7 7 8 9 10 9 9 8 8 9 10 9 9 9 6 4 7 8 8 7 8 12 17 20 20 22 23 24 25 29 33 35 36
16 16 15 13 11 13 11 8 5 4 6 7 8 10 11 10 10 9 9 9 9 7 6 5 6 5 6 7 11 11 9 11 13 12 16 19 22 24 25 26 27 28 33
15 16 17 14 12 9 5 4 3 3 3 5 8 11 11 11 10 10 9 8 8 5 5 6 5 6 5 5 6 10 10 9 9 8 11 13 17 22 23 24 24 23 24
19 19 17 17 15 12 7 5 4 4 3 5 7 8 10 10 10 8 8 8 8 5 6 6 5 4 5 5 5 10 10 10 7 11 8 10 12 16 18 23 24 23 23
21 21 20 18 16 13 9 5 3 2 1 2 3 4 8 9 10 10 9 9 8 6 5 7 6 6 6 5 4 4 8 10 14 10 12 11 9 11 12 18 21 22 23
22 19 17 17 15 13 11 9 8 6 6 6 4 4 7 9 9 9 10 9 9 8 6 7 6 5 6 7 6 5 7 9 10 13 12 9 11 13 13 14 16 20 21
18 17 16 16 15 14 13 12 9 8 6 4 4 5 5 7 9 10 10 10 9 8 8 8 7 7 6 7 7 6 8 8 8 10 16 18 15 11 11 13 12 14 19
13 15 15 17 16 15 14 12 12 11 9 7 7 6 5 4 6 10 10 10 11 10 9 9 8 8 8 8 8 7 8 8 9 9 13 17 17 15 13 12 12 11 15
Wind_Direction
175 66 77 72 67 61 55 49 45 41 38 34 31 29 28 26 24 23 21 19 17 15 13 12 10 8 8 6 5 4 4 4 4 5 4 360 355 351 352 352 352 350 349
125 91 90 87 76 67 59 52 46 42 38 35 31 29 27 26 24 23 21 18 16 14 12 11 9 7 6 4 2 1 0 1 2 4 3 358 352 347 348 348 348 346 347
114 105 88 98 85 74 64 56 49 43 39 35 31 28 26 24 23 22 20 18 15 13 12 10 8 7 6 3 1 359 359 359 359 2 1 355 349 344 344 344 343 343 344
121 119 116 106 92 79 68 59 50 44 39 35 30 26 24 23 22 21 19 16 14 13 12 10 8 6 5 3 1 360 359 358 358 0 358 353 348 342 341 340 339 339 339
125 126 128 113 98 83 70 60 51 43 38 34 29 26 24 22 20 20 17 15 13 12 11 9 8 6 4 3 1 0 359 357 2 2 356 349 346 338 337 336 335 334 334
132 133 134 120 106 88 73 62 52 43 37 34 30 26 24 21 19 19 16 13 12 11 10 9 8 6 5 3 2 360 358 357 10 2 352 346 342 333 334 333 332 330 329
148 145 142 127 116 102 81 63 53 43 37 34 30 28 25 21 18 19 15 12 12 11 10 8 8 7 6 4 2 359 357 359 7 355 346 342 335 331 331 331 329 326 324
155 153 136 127 117 108 92 68 54 46 37 35 31 29 27 20 16 19 13 12 12 10 9 8 7 6 5 3 1 358 359 2 360 349 342 341 332 331 330 328 326 323 320
152 146 129 114 105 93 75 69 56 49 39 36 30 29 27 21 17 17 13 11 11 9 8 6 6 6 4 2 359 357 360 359 354 345 342 335 329 330 328 325 322 319 316
147 146 141 132 120 102 71 52 57 50 39 35 27 26 27 22 19 17 11 10 9 7 6 4 3 4 3 360 356 355 357 353 345 343 338 330 330 328 325 322 319 316 313
154 154 152 145 137 130 122 79 63 51 37 37 29 25 31 29 23 18 10 9 7 5 3 1 360 360 358 355 352 352 351 344 342 338 333 328 328 325 324 321 318 314 311
173 174 167 158 153 149 148 136 107 104 71 51 43 42 41 33 24 18 11 8 4 1 360 357 355 354 352 346 345 346 342 340 337 333 329 327 325 324 322 318 315 312 308
178 178 177 169 164 164 170 182 194 173 144 58 41 45 39 31 23 18 11 4 360 356 353 350 348 344 340 337 335 335 336 336 331 327 323 323 323 321 318 316 313 309 306
177 183 181 175 171 173 182 198 204 199 197 207 14 43 39 34 23 13 3 354 348 343 337 335 332 329 326 325 324 325 327 326 323 321 319 321 320 318 316 313 310 307 304
182 184 183 178 176 178 186 202 203 210 213 221 219 210 122 60 16 353 340 333 329 326 319 317 318 316 315 316 318 321 318 316 314 313 314 316 317 316 313 312 309 306 302
185 184 181 180 179 178 184 197 211 219 223 222 220 211 199 198 247 287 300 307 311 314 313 311 311 308 307 308 308 312 310 308 307 307 308 310 311 312 311 309 307 305 301
186 182 180 181 179 178 185 198 210 223 228 226 224 215 209 214 230 245 263 283 298 310 311 312 311 310 312 314 309 307 307 304 303 303 305 303 303 306 307 307 306 303 299
184 182 183 182 177 179 185 196 209 223 226 228 225 220 218 224 235 239 251 272 294 302 305 304 298 302 301 302 300 301 304 303 301 301 300 298 298 298 300 303 303 301 298
186 184 185 178 175 180 185 191 201 214 219 224 225 227 228 232 239 242 252 272 288 291 295 303 317 297 302 306 304 300 301 302 299 298 295 295 294 294 295 299 301 300 298
188 185 184 179 177 176 175 176 186 203 218 227 235 239 237 237 242 247 257 270 282 282 284 285 290 290 288 296 309 310 298 296 294 289 289 295 295 295 295 295 295 295 295
187 186 185 182 180 170 162 169 183 208 216 235 247 247 238 236 245 252 262 274 277 268 270 281 287 294 290 292 304 312 303 284 285 287 287 291 293 295 295 295 294 291 291
192 191 189 188 184 182 178 168 171 172 195 224 239 238 232 238 250 257 258 264 270 269 277 284 287 285 290 309 304 317 314 307 297 309 293 292 294 296 298 299 294 291 289
198 195 193 190 186 184 174 154 146 143 201 228 225 226 234 245 257 261 266 267 267 258 263 274 276 272 288 292 258 273 302 306 314 303 302 299 296 299 298 299 296 296 295
203 195 192 187 185 182 173 173 173 185 202 215 212 219 242 253 257 262 268 269 265 259 256 269 283 266 276 292 289 251 256 279 298 307 308 300 301 303 303 303 301 299 299
198 191 188 183 184 181 180 181 182 196 205 212 219 234 243 251 253 260 267 266 260 257 259 264 270 265 259 268 280 283 283 280 270 289 303 308 307 302 301 301 298 298 299
187 186 184 184 187 183 183 184 188 196 202 210 222 233 240 240 250 257 264 260 257 257 260 264 259 259 258 261 270 272 276 278 285 286 294 301 304 305 302 300 297 299 301
Height
1612 1613 1614 1613 1613 1612 1610 1608 1606 1604 1602 1600 1598 1596 1593 1591 1588 1586 1583 1580 1577 1575 1572 1570 1567 1565 1563 1560 1558 1555 1553 1551 1549 1547 1546 1547 1547 1547 1546 1546 1545 1545 1545
1610 1612 1612 1612 1611 1610 1609 1607 1605 1603 1601 1599 1597 1595 1593 1591 1588 1585 1583 1580 1577 1574 1572 1569 1566 1564 1561 1559 1557 1554 1552 1550 1547 1545 1543 1543 1544 1544 1543 1543 1543 1542 1542
1609 1610 1610 1610 1610 1609 1607 1606 1604 1602 1600 1598 1596 1594 1592 1590 1588 1585 1582 1579 1577 1574 1571 1568 1566 1563 1560 1557 1555 1553 1551 1548 1546 1543 1541 1540 1540 1540 1540 1540 1539 1539 1539
1608 1608 1609 1609 1608 1607 1606 1604 1603 1601 1599 1598 1595 1593 1591 1589 1587 1584 1581 1578 1576 1573 1570 1568 1565 1562 1559 1556 1554 1551 1549 1546 1543 1540 1538 1537 1536 1536 1536 1536 1536 1535 1535
1606 1607 1607 1607 1606 1606 1605 1603 1602 1600 1598 1596 1594 1592 1590 1588 1586 1583 1580 1577 1575 1572 1569 1567 1564 1561 1558 1555 1552 1550 1546 1543 1539 1538 1537 1535 1533 1533 1532 1532 1531 1531 1531
1605 1606 1606 1605 1605 1604 1603 1602 1600 1599 1597 1595 1593 1591 1588 1586 1584 1581 1578 1576 1573 1571 1568 1565 1563 1560 1556 1553 1550 1547 1544 1540 1535 1534 1533 1532 1531 1530 1529 1528 1527 1527 1526
1603 1604 1604 1604 1603 1603 1602 1601 1599 1597 1595 1593 1591 1588 1586 1583 1581 1579 1576 1574 1571 1569 1566 1563 1560 1557 1554 1551 1548 1544 1541 1537 1533 1531 1529 1528 1528 1527 1525 1524 1523 1522 1522
1602 1602 1602 1602 1602 1601 1600 1599 1597 1595 1593 1591 1589 1586 1583 1581 1579 1576 1574 1572 1569 1567 1564 1561 1558 1555 1552 1548 1545 1541 1538 1534 1529 1528 1526 1524 1523 1522 1521 1520 1518 1517 1517
1600 1600 1600 1600 1600 1600 1599 1597 1595 1594 1591 1589 1587 1584 1582 1579 1577 1574 1572 1570 1567 1565 1562 1559 1556 1553 1549 1546 1542 1539 1535 1531 1527 1524 1521 1520 1518 1517 1516 1515 1513 1512 1511
1597 1598 1598 1598 1598 1598 1597 1595 1593 1592 1589 1587 1585 1582 1580 1577 1575 1573 1570 1568 1565 1563 1560 1557 1553 1550 1546 1543 1540 1536 1532 1528 1524 1521 1517 1515 1513 1512 1510 1509 1508 1506 1505
1593 1594 1595 1596 1596 1595 1594 1593 1591 1590 1588 1585 1583 1580 1578 1575 1573 1571 1568 1566 1563 1560 1557 1554 1550 1546 1543 1540 1537 1533 1529 1525 1521 1517 1514 1511 1509 1507 1506 1503 1501 1500 1498
1589 1591 1592 1593 1593 1593 1592 1590 1589 1587 1585 1583 1581 1578 1576 1573 1571 1568 1566 1563 1560 1557 1554 1550 1546 1543 1540 1536 1533 1529 1525 1522 1518 1514 1510 1507 1505 1502 1500 1497 1495 1493 1491
1586 1587 1589 1590 1591 1590 1589 1588 1586 1584 1582 1580 1578 1575 1573 1571 1568 1566 1563 1560 1556 1553 1549 1546 1542 1538 1535 1531 1528 1525 1521 1518 1514 1510 1506 1503 1500 1497 1494 1491 1488 1486 1484
1581 1583 1585 1587 1587 1587 1586 1585 1583 1581 1579 1577 1575 1572 1570 1567 1565 1562 1559 1555 1551 1547 1544 1540 1536 1533 1530 1526 1523 1520 1517 1514 1510 1506 1502 1498 1494 1491 1488 1485 1482 1479 1476
1577 1579 1581 1583 1584 1584 1583 1581 1580 1578 1576 1574 1571 1569 1566 1563 1561 1557 1554 1550 1546 1542 1538 1534 1531 1528 1524 1521 1518 1515 1512 1509 1505 1502 1497 1493 1489 1484 1481 1478 1475 1472 1469
1572 1575 1577 1578 1580 1580 1579 1578 1576 1574 1572 1570 1567 1565 1562 1559 1556 1553 1549 1545 1542 1538 1534 1530 1526 1523 1519 1516 1513 1510 1507 1504 1500 1496 1492 1487 1483 1478 1474 1470 1467 1464 1461
1569 1571 1572 1574 1575 1575 1575 1574 1572 1570 1568 1566 1563 1560 1557 1555 1551 1548 1545 1541 1538 1534 1530 1526 1522 1519 1515 1511 1508 1505 1501 1498 1495 1491 1486 1482 1477 1472 1467 1463 1459 1455 1452
1565 1566 1568 1569 1570 1570 1570 1569 1568 1566 1564 1562 1559 1556 1553 1550 1547 1544 1541 1537 1534 1530 1526 1522 1518 1514 1510 1506 1502 1499 1496 1492 1489 1485 1480 1476 1471 1466 1460 1455 1451 1447 1443
1560 1561 1562 1563 1564 1565 1565 1564 1563 1561 1559 1557 1554 1552 1549 1546 1543 1540 1537 1533 1529 1526 1522 1518 1514 1510 1505 1501 1497 1493 1490 1487 1483 1479 1474 1470 1465 1460 1454 1448 1443 1438 1434
1555 1556 1556 1557 1558 1559 1559 1559 1558 1556 1554 1552 1550 1547 1545 1542 1539 1536 1532 1529 1525 1521 1518 1514 1510 1506 1502 1498 1493 1488 1484 1481 1477 1473 1469 1464 1459 1453 1448 1442 1436 1429 1425
1548 1549 1549 1550 1551 1552 1553 1553 1552 1551 1549 1547 1545 1543 1540 1537 1534 1531 1528 1524 1521 1517 1513 1509 1505 1501 1498 1494 1488 1482 1477 1475 1471 1467 1463 1458 1452 1447 1441 1435 1429 1423 1417
1541 1541 1542 1543 1544 1546 1547 1548 1547 1546 1544 1542 1540 1538 1535 1533 1530 1527 1523 1520 1516 1513 1509 1505 1501 1497 1493 1491 1487 1479 1472 1468 1464 1461 1456 1451 1446 1441 1435 1429 1423 1417 1411
1532 1533 1534 1535 1537 1539 1541 1542 1541 1540 1538 1537 1535 1533 1530 1528 1525 1522 1518 1515 1511 1508 1504 1501 1497 1493 1489 1486 1484 1481 1474 1464 1458 1452 1448 1444 1440 1435 1429 1423 1417 1411 1405
1524 1526 1527 1529 1530 1532 1534 1534 1534 1534 1533 1532 1530 1528 1525 1523 1520 1517 1514 1510 1507 1503 1500 1496 1493 1489 1485 1481 1478 1476 1472 1466 1458 1447 1441 1437 1433 1429 1423 1417 1411 1405 1400
1519 1519 1520 1522 1523 1525 1526 1527 1528 1527 1527 1526 1524 1522 1520 1518 1515 1512 1509 1505 1502 1498 1495 1491 1488 1484 1480 1476 1472 1469 1465 1461 1456 1450 1438 1429 1424 1421 1417 1412 1406 1400 1395
1512 1512 1513 1514 1515 1517 1518 1520 1521 1521 1520 1519 1518 1516 1514 1512 1510 1507 1503 1500 1496 1493 1489 1486 1482 1478 1474 1471 1467 1463 1459 1455 1450 1445 1437 1427 1419 1412 1409 1405 1401 1396 1391